Location: Fort Frances
(48.6170°N, 93.4170°W)
Time: 00:49:18
(UTC-06:00)

Daily predictions for brighter satellites

Satellite Brightness Start Highest point End
(mag) Time Altitude Azimuth Time Altitude Azimuth Time Altitude Azimuth
CENTAUR R/B 4.0 03:57:18 28° SE 03:58:45 31° ESE 04:04:34 10° NE
ADEOS II 4.1 03:56:22 10° NNE 03:58:20 22° NE 03:58:20 22° NE
Cosmos 2219 Rocket 3.8 04:04:55 28° NE 04:04:55 28° NE 04:07:31 10° NNE
Cosmos 2333 Rocket 3.5 04:08:13 35° NE 04:08:13 35° NE 04:11:33 10° NE
ATLAS 5 CENTAUR R/B 4.3 04:10:08 16° NNE 04:10:08 16° NNE 04:11:34 10° NNE
ATLAS 3B R/B 4.0 04:15:40 30° N 04:15:40 30° N 04:20:13 10° NE
NOSS 3-2 (C) 4.0 04:22:29 53° NNE 04:22:29 53° NNE 04:27:43 10° NE
Cosmos 2278 Rocket 4.3 04:27:06 15° SSE 04:27:06 15° SSE 04:28:04 10° SSE
Cosmos 1709 Rocket 4.3 04:20:30 10° S 04:26:32 63° E 04:32:41 10° NNE
SL-16 R/B 3.6 04:28:41 10° S 04:33:48 36° ESE 04:38:55 10° NE
COSMOS 2428 4.3 04:40:23 23° N 04:40:23 23° N 04:42:44 10° NNE
Cosmos 773 Rocket 4.2 04:45:17 65° E 04:45:17 65° E 04:50:14 10° NNE
Cosmos 2360 Rocket 4.3 04:51:14 14° N 04:51:14 14° N 04:52:24 10° N
NOSS 3-2 (A) 4.0 04:49:28 46° NNW 04:49:28 46° NNW 04:55:21 10° NE
Feng Yun 1-1 Rocket 4.3 04:52:26 10° NNE 04:58:10 79° ESE 05:03:42 10° SSW
CZ-4C R/B 3.9 04:59:49 23° N 04:59:49 23° N 05:05:03 10° NE
Cosmos 2237 Rocket 2.1 05:05:58 65° NW 05:05:58 65° NW 05:11:13 10° NNE
Meteor 1-18 Rocket 4.3 05:02:42 22° N 05:06:44 83° ENE 05:12:40 10° SSE
Gbstr 26 Del rocket 4.3 05:12:21 31° S 05:12:21 31° S 05:15:08 10° SSE
COSMO-SKYMED 1 2.6 05:12:50 10° SSE 05:17:10 78° ENE 05:18:11 52° N
Cosmos 1680 Rocket 3.7 05:13:25 10° SSW 05:18:36 70° ESE 05:23:48 10° NNE
Cosmos 921 Rocket 3.1 05:19:06 58° N 05:19:57 81° ENE 05:24:28 10° SSE
USA 215 3.3 05:13:53 10° ENE 05:20:26 75° SE 05:24:52 22° SW
Lacrosse 5 rocket 2.1 05:23:09 41° N 05:23:09 41° N 05:26:33 10° NE
SL-23 DEB 4.3 05:24:47 43° NE 05:24:47 43° NE 05:27:20 10° E
Cosmos 292 Rocket 4.0 05:24:34 10° SSW 05:29:24 72° ESE 05:34:13 10° NNE
SJ-6F 4.3 05:25:55 10° NNE 05:30:02 88° W 05:34:06 10° SSW
NOAA 6 3.9 05:25:36 10° NNE 05:30:46 89° ESE 05:35:54 10° SSW
Cosmos 2369 Rocket 3.3 05:26:57 14° NNW 05:31:30 42° NE 05:36:54 10° ESE
Cosmos 1315 Rocket 3.8 05:34:15 32° N 05:34:15 32° N 05:36:35 10° N
Cosmos 2074 Rocket 4.0 05:27:29 10° S 05:33:47 88° E 05:40:06 10° N
Cosmos 2112 Rocket 4.0 05:31:54 10° SSW 05:37:07 85° ESE 05:42:20 10° NNE
Meteor 1-20 Rocket 4.1 05:32:56 10° S 05:38:32 88° E 05:44:05 10° NNE
Cosmos 1980 4.1 05:39:07 38° WNW 05:39:28 38° NW 05:44:47 10° NNE
ADEOS II 3.2 05:36:20 10° N 05:39:17 26° NNW 05:39:17 26° NNW
Meteor 1-14 Rocket 4.3 05:38:46 10° SSW 05:44:17 52° WNW 05:49:44 10° N
Cosmos 1300 Rocket 4.2 05:41:30 10° S 05:45:51 58° E 05:50:11 10° NNE
NOSS 0 Rocket 4.4 05:44:38 34° WNW 05:46:02 38° NW 05:51:49 10° NNE
Cosmos 2219 Rocket 3.2 05:46:40 26° NW 05:46:40 26° NW 05:51:06 10° NNE
Cosmos 2184 Rocket 3.9 05:40:12 10° SSW 05:46:21 80° W 05:52:36 10° N
Cosmos 2297 4.5 05:48:49 30° WSW 05:48:51 30° WSW 05:53:40 10° SSW
CENTAUR R/B 2.6 05:44:34 22° WSW 05:48:53 67° NW 05:56:01 10° NE
Okean 1 3.3 05:48:31 40° NW 05:49:40 57° W 05:53:38 10° S
Cosmos 2333 Rocket 3.0 05:50:16 30° NW 05:50:36 30° NW 05:55:35 10° NNE
ATLAS 5 CENTAUR R/B 3.8 05:51:41 16° NNW 05:53:16 18° N 05:57:04 10° NE
CZ-2C R/B 4.4 05:52:33 10° NNE 05:57:12 32° E 06:01:47 10° SSE
Meteor 1-19 Rocket 4.4 05:51:28 10° N 05:57:23 79° ENE 06:03:12 10° SSE
Cosmos 1238 Rocket 3.8 05:59:40 32° WNW 06:00:36 35° W 06:05:17 10° SSW
Cosmos 2154 Rocket 4.2 05:55:19 10° S 06:01:30 74° E 06:07:42 10° NNE
Meteor 1-11 Rocket 4.3 05:56:32 10° S 06:02:19 64° E 06:08:01 10° NNE
Cosmos 2151 Rocket 3.8 05:59:50 10° SSW 06:04:11 46° WNW 06:08:32 10° N
SKYMED 2 4.2 06:01:24 10° SSW 06:05:23 35° W 06:06:48 28° WNW
Tiangong 2 3.0 06:04:56 16° SW 06:06:40 24° S 06:09:19 10° ESE
ATLAS 3B R/B 4.2 06:02:55 16° NW 06:06:43 23° N 06:12:09 10° NE
Meteor 1-25 Rocket 4.5 06:05:26 10° SSW 06:11:03 48° WNW 06:16:42 10° N
Meteor 1-13 Rocket 4.3 06:05:40 10° NNW 06:11:35 70° W 06:17:30 10° S
Cosmos 1346 Rocket 3.2 06:10:19 27° NW 06:11:44 37° W 06:15:20 10° SSW
CZ-4 R/B 2.4 06:08:43 10° NNE 06:12:37 48° E 06:16:25 10° S
Cosmos 1812 4.2 06:15:05 20° WSW 06:15:05 20° WSW 06:17:05 10° SW
Cosmos 2056 Rocket 3.6 06:11:44 15° NNW 06:15:52 55° WSW 06:20:51 10° S
Cosmos 1602 3.7 06:11:57 10° S 06:15:54 85° W 06:19:54 10° N
Lacrosse 4 Rocket 3.4 06:12:41 10° N 06:16:01 22° NE 06:19:16 10° E
Okean-O 4.4 06:13:52 10° NNW 06:15:05 15° NNW 06:15:05 15° NNW
Meteor 2-13 Rocket 4.5 06:10:55 10° S 06:17:05 89° E 06:23:17 10° N
SL-16 R/B 2.5 06:12:25 10° SW 06:17:49 44° NW 06:23:16 10° NNE
CSL-04 DEB 4.5 06:16:40 10° N 06:20:33 52° WNW 06:24:32 10° SW
IDEFIX/ARIANE 42P 3.6 06:17:27 10° NNE 06:22:30 49° E 06:27:31 10° S
COSMOS 2428 4.5 06:22:25 13° NW 06:23:09 13° NNW 06:25:43 10° N
SMAP 4.1 06:19:12 10° NNE 06:23:45 49° E 06:28:15 10° S
Lacrosse 5 3.6 06:22:28 10° SSW 06:27:05 36° SE 06:31:44 10° ENE
Cosmos 1943 Rocket 2.9 06:23:48 10° NNW 06:29:13 52° ENE 06:34:35 10° SE
Meteor 1-23 Rocket 4.2 06:24:14 10° NNW 06:29:51 89° ENE 06:35:24 10° S
Cosmos 2263 4.3 06:24:16 10° NNW 06:29:56 77° ENE 06:35:33 10° SSE
YAOGAN 1 3.3 06:29:29 10° NNE 06:33:47 57° E 06:38:03 10° S
IRS-1A Rocket 4.3 06:29:33 10° NNE 06:35:14 85° WNW 06:41:00 10° SSW
Ariane Rocket 3.2 06:30:28 10° N 06:35:18 46° WNW 06:40:07 10° SW
Meteor 1-29 3.0 06:32:05 10° SSE 06:35:27 76° ENE 06:38:50 10° N
Cosmos 1536 2.7 06:33:34 10° SSW 06:37:33 80° W 06:41:36 10° N
DNEPR-1 R/B 4.4 06:31:48 10° SW 06:38:51 71° NW 06:44:36 10° NE
GRACE-2 3.7 06:38:11 10° N 06:40:59 75° W 06:43:45 10° S
SL-8 Rocket 4.4 06:34:46 10° S 06:40:59 70° E 06:47:12 10° NNE
GRACE-1 3.7 06:38:36 10° N 06:41:24 72° W 06:44:10 10° S
Helios 1B rocket 2.4 06:37:38 10° S 06:41:47 71° WSW 06:45:57 10° NNW
Cosmos 192 4.3 06:37:37 10° SSW 06:42:31 76° WNW 06:47:28 10° NNE
Cosmos 1025 Rocket 3.2 06:44:14 10° NNW 06:48:32 54° W 06:52:47 10° S
Okean 1 Rocket 3.4 06:45:24 10° SW 06:49:35 41° WNW 06:53:45 10° N
Okean 1-7 Rocket 4.2 06:45:48 10° NNW 06:49:48 35° W 06:53:47 10° SSW
CZ-4C R/B 4.1 06:45:21 10° NW 06:50:36 25° NNE 06:56:23 10° ENE
Cosmos 2237 Rocket 3.7 06:47:51 12° WNW 06:50:47 17° NW 06:54:23 10° N
Meteor 2-4 Rocket 3.8 06:45:50 10° NNW 06:51:08 54° W 06:56:33 10° S
Cosmos 2218 Rocket 4.4 06:45:30 10° S 06:51:51 71° E 06:58:15 10° NNE
Cosmos 44 Rocket 3.7 06:47:24 10° SSW 06:52:34 75° SE 06:57:40 10° NE
COSMO-SKYMED 1 4.4 06:52:03 10° WSW 06:53:53 12° W 06:55:23 11° WNW
Nadezhda 3 Rocket 4.5 06:48:21 10° NNW 06:54:11 40° W 07:00:01 10° SSW
Cosmos 1544 Rocket 4.0 06:51:55 10° S 06:56:13 68° E 07:00:35 10° NNE
SJ-7 4.4 06:52:26 10° NNE 06:56:41 83° WNW 07:00:49 10° SSW
Meteor 2-8 Rocket 4.5 06:51:58 10° NNW 06:58:06 71° W 07:04:13 10° S
Cosmos 1633 3.4 06:56:11 10° SW 06:59:24 29° WNW 07:02:39 10° N
MSX 4.3 06:54:12 10° NNE 06:59:56 67° ESE 07:05:38 10° S
Cosmos 1484 Rocket 3.5 06:58:42 10° NNE 07:02:24 55° E 07:06:08 10° S
Lacrosse 5 rocket 2.7 06:58:53 10° WNW 07:02:27 27° N 07:06:12 10° NE
USA 215 3.5 06:57:00 10° NE 07:03:19 54° NNW 07:09:38 10° W
CZ-4 R/B 4.5 06:59:57 10° NNE 07:04:10 89° WNW 07:08:20 10° SSW
Cosmos 1340 2.7 07:01:17 10° NNW 07:05:03 63° W 07:08:48 10° S
Cosmos 1452 Rocket 3.8 07:00:27 10° NNW 07:05:31 48° WSW 07:10:34 10° S
CSL-04 Rocket 4.3 07:01:07 10° N 07:06:09 36° WNW 07:11:09 10° SW
Meteor 1-5 Rocket 4.1 07:01:42 10° SSW 07:07:06 82° W 07:12:27 10° N
Cosmos 2341 Rocket 4.3 07:07:31 10° SW 07:13:32 46° WNW 07:19:33 10° N
Cosmos 1892 Rocket 3.8 07:09:31 10° NNW 07:13:51 51° W 07:18:10 10° S
Cosmos 1603 4.1 07:09:48 10° WSW 07:15:10 41° NW 07:20:32 10° NNE
Cosmos 1727 Rocket 4.0 07:09:14 10° N 07:15:26 84° W 07:21:38 10° S
Cosmos 2369 Rocket 2.8 07:10:15 10° NW 07:15:30 38° WSW 07:20:43 10° S
